GFSSW_2pvu_pres_132.txt.gz
Presure
174 186 153 173 159 171 187 147 162 179 191 167 160 197 190 182 176 188 188 126 196 193 177 199 203 150 185 179 171 208 120 172 127 139 206 144 139 144 213 205 219 213 178 165 189
125 156 171 192 159 178 177 184 176 179 188 175 194 188 209 174 201 140 159 114 195 193 119 190 197 201 161 200 156 203 197 198 201 198 194 198 197 201 202 140 130 127 126 144 134
134 185 126 129 185 169 173 184 189 168 185 196 182 185 160 162 156 195 114 131 175 192 188 127 147 179 193 123 197 196 194 194 197 106 126 155 193 144 134 169 190 199 203 198 192
180 182 175 185 170 170 186 189 186 168 145 189 201 175 158 192 204 195 200 184 185 131 186 189 181 188 127 185 174 181 181 164 186 172 184 158 177 138 141 187 150 196 193 195 141
203 195 188 182 180 162 187 166 159 195 171 169 157 185 199 187 189 200 158 184 183 154 193 194 136 117 183 154 185 135 168 188 181 186 181 183 180 177 181 186 192 171 189 186 160
215 192 185 177 186 152 161 176 161 191 181 157 181 177 179 164 187 190 203 188 193 186 188 190 192 191 190 194 195 182 196 190 126 184 193 192 158 123 187 183 172 185 185 184 188
176 207 192 196 211 189 192 196 182 134 165 143 151 194 166 198 175 196 193 202 184 196 188 182 186 179 183 174 185 191 188 181 141 174 193 195 191 199 193 194 116 184 190 185 195
203 211 196 185 189 200 178 175 135 169 184 174 195 184 184 202 185 174 157 185 196 187 190 182 163 179 190 185 179 170 176 188 167 189 184 142 170 199 195 198 195 183 168 153 192
200 208 180 197 195 187 192 198 185 164 192 161 178 133 164 197 195 173 166 200 182 197 186 191 185 193 187 181 184 191 194 192 184 163 196 200 191 161 157 185 176 181 159 183 177
206 179 191 179 185 188 200 196 151 174 182 183 202 180 192 188 141 174 170 204 186 188 183 196 192 160 184 190 195 198 193 183 181 158 181 173 187 188 189 180 149 216 216 206 211
203 189 200 201 149 202 197 199 199 195 207 189 200 193 208 185 147 159 171 216 188 155 209 180 204 212 156 178 212 200 193 188 193 145 213 199 219 204 131 196 240 240 202 216 209
183 206 205 197 191 189 204 199 187 173 202 158 177 207 156 202 210 196 149 206 196 175 209 197 217 202 195 188 178 164 210 189 166 222 60 225 226 220 199 240 200 263 213 122 216
227 226 218 193 197 196 206 206 199 197 201 183 173 203 182 197 142 144 179 188 200 184 154 193 189 217 181 201 186 220 225 230 226 224 203 228 183 229 283 143 202 210 258 82 241
233 218 212 209 182 201 210 208 211 193 192 201 201 194 168 200 207 194 186 203 198 167 211 172 227 217 217 199 154 221 228 225 170 242 235 160 190 190 242 139 296 79 314 264 397
233 228 219 210 219 193 177 197 198 215 207 214 213 132 190 179 200 212 183 198 200 207 206 215 213 220 154 230 224 254 192 228 239 156 226 253 159 272 298 301 314 377 365 333 335
235 227 229 226 228 210 190 182 209 205 184 201 184 191 202 206 152 202 184 168 177 169 219 211 196 230 239 210 217 238 227 234 203 245 272 282 286 188 222 86 72 332 336 338 333
241 243 224 202 219 210 220 222 203 171 193 203 185 192 201 177 197 188 181 165 198 202 203 207 183 216 231 207 248 209 264 274 149 183 273 277 288 327 348 320 328 333 314 319 107
267 248 254 236 232 230 211 212 217 196 206 166 145 187 146 201 173 199 205 219 202 218 195 243 261 198 205 258 215 253 274 273 265 273 279 314 347 315 328 306 308 276 308 171 85
315 290 257 256 250 234 242 244 219 213 199 182 187 135 183 212 194 200 142 223 214 240 247 185 250 248 197 254 264 257 210 271 274 284 347 325 316 319 306 294 304 307 286 88 113
352 301 296 262 262 264 258 270 233 217 205 208 204 141 193 223 217 226 220 231 192 226 256 216 249 262 221 257 195 252 262 269 305 349 327 310 299 299 298 295 284 278 276 281 284
379 341 306 289 268 254 240 248 244 241 231 220 218 175 227 181 236 233 235 242 247 247 247 252 259 252 253 258 254 258 276 264 361 340 308 289 292 314 286 273 285 272 261 277 275
285 303 323 310 308 286 261 254 252 258 255 240 236 246 225 241 243 235 240 256 246 247 256 249 248 247 251 251 250 259 281 367 343 315 290 281 296 298 253 271 270 261 252 259 255
302 323 293 296 322 321 284 252 265 250 245 252 244 228 247 246 257 239 242 240 258 248 239 240 240 247 243 257 261 270 322 320 323 297 292 269 305 272 271 256 268 263 254 241 248
266 285 274 273 283 287 297 280 274 258 260 267 263 230 250 248 251 251 244 252 244 237 234 242 240 239 244 254 249 310 337 352 311 293 271 281 274 261 271 271 257 265 257 255 245
275 280 277 266 266 264 263 264 275 266 277 275 273 254 247 247 241 249 248 240 232 239 239 230 236 242 251 242 305 325 330 335 294 292 270 264 276 274 261 265 259 262 258 236 237
246 261 262 253 258 261 261 259 253 247 261 263 253 242 243 249 241 236 230 232 238 232 230 231 242 248 239 307 291 340 313 323 295 289 283 271 267 274 255 265 252 242 255 234 253
258 246 248 242 240 239 243 243 258 245 245 244 240 238 239 237 228 229 236 229 224 227 231 239 240 232 304 290 383 375 304 311 298 286 278 259 257 264 249 246 254 245 237 233 257

GFSSW_2pvu_pres_138.txt.gz
Presure
139 178 172 139 186 173 191 169 162 153 167 176 167 183 177 155 171 162 170 182 186 171 185 180 152 191 190 197 193 199 145 201 214 212 207 207 167 209 209 207 215 168 214 154 160
161 133 177 187 185 142 183 156 163 169 179 138 166 184 193 182 188 164 172 179 183 179 182 190 171 178 190 190 192 195 190 178 204 158 203 211 200 203 206 117 130 133 176 218 131
180 185 190 148 139 168 193 181 171 161 187 191 165 181 158 165 193 187 175 174 193 174 191 191 201 193 150 199 192 187 191 137 200 199 202 133 215 205 204 201 179 194 161 194 195
181 183 124 185 174 163 182 184 192 177 176 155 181 153 192 172 204 189 170 176 164 171 162 182 176 169 191 198 200 190 187 191 197 198 188 166 200 144 200 200 199 142 200 126 200
187 172 179 179 177 181 175 176 165 172 177 175 184 169 189 192 211 197 168 196 175 186 179 182 174 190 185 197 186 200 181 190 194 169 113 153 188 188 173 187 195 134 198 130 196
176 186 177 172 155 172 179 179 192 174 191 185 178 179 189 180 205 208 197 202 193 187 169 165 202 193 179 185 183 198 195 175 188 189 185 190 191 189 188 131 187 189 191 189 190
183 173 178 159 174 185 179 169 191 187 170 182 164 177 198 188 169 187 210 200 157 168 190 152 161 194 157 170 191 202 196 191 177 189 184 189 191 197 198 190 178 186 187 188 189
183 131 167 183 179 169 194 157 185 177 169 182 166 193 176 183 192 204 205 190 203 192 193 180 186 153 158 159 178 196 169 158 195 196 195 176 184 190 195 192 191 192 197 190 196
163 171 156 171 156 185 182 175 169 188 173 179 166 196 201 205 177 190 189 203 190 181 179 193 157 164 177 178 170 174 192 181 195 191 188 192 194 182 191 183 189 188 187 182 197
178 180 162 170 184 175 176 189 179 168 188 164 205 159 197 207 191 207 212 192 197 188 183 177 181 191 163 182 200 184 173 183 189 190 193 192 187 192 200 196 195 194 191 190 189
166 188 181 129 160 187 130 185 152 216 204 207 201 200 190 189 205 197 159 198 186 185 190 174 188 188 187 190 176 194 203 203 195 162 187 172 196 201 210 192 189 196 196 200 195
171 195 197 174 216 136 188 192 193 133 196 171 140 147 176 184 193 192 177 197 199 196 185 195 194 193 199 191 169 198 200 205 200 157 185 169 172 147 200 216 167 206 208 208 205
199 179 162 199 198 210 195 204 130 164 232 224 148 225 231 213 198 182 167 203 186 201 208 205 193 203 203 181 179 203 212 207 216 171 213 187 206 208 210 186 191 239 235 233 201
199 186 176 208 171 189 171 176 183 207 217 187 183 200 200 207 220 215 196 186 189 193 205 184 170 132 189 197 185 208 204 204 164 203 202 204 214 185 216 228 127 223 218 208 215
218 219 193 157 193 222 218 212 222 224 228 222 166 188 228 216 242 201 125 195 193 196 204 183 200 180 204 192 202 198 138 190 220 205 213 215 190 197 209 207 204 209 240 287 125
210 220 222 223 209 211 224 231 203 226 224 188 199 186 217 223 214 208 220 157 198 201 195 196 152 198 206 203 197 209 210 198 227 224 187 195 206 221 199 209 299 289 273 293 223
224 235 236 221 224 227 236 225 227 228 217 222 218 232 218 209 226 222 224 217 205 203 204 206 194 164 206 171 210 214 183 220 206 216 210 215 207 224 231 300 289 291 265 297 385
252 251 247 238 231 226 233 230 228 224 233 221 224 219 222 215 225 210 232 219 216 209 210 209 202 202 159 196 196 196 141 214 198 200 168 212 227 265 286 284 286 285 290 383 363
347 365 325 306 283 250 246 240 235 231 235 224 219 226 231 224 232 213 215 220 206 226 212 217 217 199 214 207 171 190 188 200 208 195 201 220 278 282 274 275 276 274 368 369 322
318 300 324 335 288 281 273 267 253 243 238 232 230 229 215 214 205 214 218 214 215 219 221 221 220 216 216 212 215 211 195 191 199 216 227 245 275 265 272 273 273 299 345 314 291
295 323 339 321 321 331 335 309 282 265 238 238 234 237 220 233 212 210 182 216 222 223 221 205 216 220 216 211 195 220 214 212 222 225 255 265 260 226 268 273 279 325 316 303 270
324 302 315 340 325 315 340 339 344 326 277 254 247 226 233 227 224 216 227 221 226 217 216 223 228 221 141 139 227 157 245 245 240 260 265 258 264 262 267 258 351 318 316 285 259
345 322 301 351 348 336 288 275 282 339 332 290 255 237 231 226 222 217 228 225 214 228 214 223 190 232 237 230 239 223 246 249 252 259 250 253 262 264 256 332 339 306 313 269 263
356 321 304 307 338 353 322 287 305 330 319 309 281 254 245 236 226 231 227 210 236 234 226 220 223 216 233 231 237 240 238 245 253 247 249 260 262 258 350 344 314 296 305 275 251
288 293 307 332 358 327 307 274 264 305 321 310 304 292 246 244 230 233 229 228 228 216 236 149 230 228 216 229 240 243 246 251 243 253 256 261 253 342 336 341 303 285 296 267 254
285 266 294 289 298 296 297 315 337 299 297 295 287 274 275 269 259 237 236 243 248 239 243 242 231 232 252 246 239 237 245 240 242 249 254 252 359 335 313 333 299 284 295 265 267
273 241 272 274 292 296 291 284 283 285 279 284 285 291 281 279 272 284 260 265 258 249 253 252 252 245 238 237 238 237 239 243 246 257 256 307 369 324 303 334 296 273 271 279 259

GFSSW_2pvu_pres_141.txt.gz
Presure
166 171 172 167 184 183 180 189 179 190 190 138 201 178 167 140 180 176 172 174 164 183 172 167 184 174 164 195 187 200 199 192 199 194 201 200 208 212 128 198 211 131 173 181 146
128 184 171 180 167 172 181 182 192 185 186 189 191 179 175 169 171 148 169 178 148 165 168 167 169 170 168 178 187 180 168 201 168 187 198 200 196 176 206 210 215 148 208 184 208
172 166 133 178 174 172 167 182 195 192 185 187 184 188 137 164 169 176 183 181 187 191 186 216 180 170 170 182 169 193 170 199 185 199 197 161 197 186 199 182 208 142 210 209 139
182 169 142 182 185 174 193 178 189 181 188 180 158 188 190 177 184 177 180 180 185 187 195 163 193 176 194 151 178 195 196 175 181 200 205 198 194 193 195 200 200 197 147 162 202
167 168 133 169 137 170 178 162 194 194 137 147 181 180 168 178 180 182 146 183 191 175 184 228 192 171 193 180 173 184 187 170 194 175 206 201 197 182 198 200 198 193 194 197 200
123 171 167 166 175 173 157 181 163 191 146 178 177 157 172 187 181 183 191 164 187 192 175 204 205 206 185 179 153 181 194 174 162 174 190 193 197 195 195 144 122 189 195 196 199
163 121 160 148 162 180 183 183 184 189 185 159 186 190 170 188 181 177 181 192 182 180 214 189 212 216 202 184 178 156 188 178 174 170 185 180 192 202 196 163 142 204 198 189 200
162 161 143 130 163 182 160 176 180 144 181 162 178 182 162 173 183 176 173 182 194 205 186 199 196 215 148 186 161 178 179 193 197 181 182 170 197 134 173 190 176 191 196 197 192
175 177 178 179 183 188 187 189 169 156 189 193 149 183 187 191 180 187 173 180 194 190 200 197 191 209 214 178 185 170 186 179 177 170 185 197 183 176 185 202 198 192 191 191 192
169 161 159 161 171 166 166 176 178 182 182 165 180 183 159 176 187 170 191 193 181 209 206 188 202 204 206 196 185 184 193 190 187 158 163 199 173 156 180 177 198 198 187 182 184
180 184 167 163 179 181 180 183 166 146 190 186 182 180 201 201 202 169 175 183 162 188 215 208 199 178 200 202 196 194 187 177 175 198 199 186 183 132 185 195 196 188 196 199 192
170 179 171 180 171 179 158 188 178 184 192 205 169 164 186 202 212 186 179 166 197 210 214 199 194 196 178 198 194 191 188 191 195 197 195 196 204 186 209 192 201 186 186 190 193
184 188 178 185 200 166 198 193 173 181 195 193 195 149 217 197 135 202 206 156 234 192 167 200 210 191 178 190 192 197 194 192 197 199 174 179 190 191 202 210 203 214 222 226 208
225 216 203 199 177 200 196 199 191 184 197 206 197 209 157 141 187 151 162 221 215 230 176 205 205 205 168 167 194 180 184 173 181 187 200 187 175 216 199 208 206 222 221 231 222
212 175 216 213 168 204 173 181 197 207 171 203 217 182 221 192 183 187 190 197 220 217 208 201 228 199 210 189 194 190 190 202 200 181 184 185 195 206 196 213 164 229 231 193 194
192 218 207 224 210 209 205 213 202 185 213 189 191 201 197 212 201 192 185 218 195 224 220 227 198 233 208 199 203 179 197 186 198 191 191 203 214 219 213 236 204 227 222 212 211
226 197 219 203 199 199 181 193 178 209 213 202 201 200 214 213 181 229 208 232 224 217 205 219 223 228 221 212 209 203 178 171 187 203 196 216 179 210 212 212 215 218 214 219 204
257 243 251 240 255 225 203 225 229 216 209 206 221 215 218 204 224 217 218 224 218 221 218 221 218 215 229 223 214 212 209 208 206 212 213 176 219 226 228 184 239 226 210 231 282
249 247 244 238 238 235 245 263 243 236 223 222 225 234 219 221 220 221 224 223 210 214 208 224 223 220 230 214 214 217 218 213 218 158 206 183 225 210 226 238 257 273 282 281 284
368 366 380 346 331 307 308 275 284 246 244 233 242 242 224 224 222 231 225 227 214 220 217 211 222 223 221 219 222 222 221 231 233 232 227 203 166 235 181 261 273 277 180 275 279
370 373 366 362 359 344 343 345 264 260 269 284 287 271 240 232 227 226 218 219 218 225 190 205 222 234 230 217 219 216 222 222 222 200 229 235 194 251 248 262 266 267 263 274 271
370 364 378 365 353 345 333 310 308 334 339 334 312 290 276 264 245 226 223 226 230 231 220 209 224 219 221 154 213 212 216 217 220 221 160 236 250 242 252 255 259 254 270 265 347
326 349 351 333 340 343 324 314 322 313 305 321 330 322 283 279 268 248 234 235 228 215 219 199 216 207 216 221 151 205 227 222 227 226 238 247 234 242 253 253 252 260 261 350 339
290 291 296 290 296 353 306 291 286 313 316 298 305 328 326 312 272 259 246 239 232 223 222 222 223 214 217 235 178 234 222 230 231 153 235 232 239 251 250 244 258 264 347 335 332
272 266 285 331 306 287 279 275 313 317 314 297 275 264 323 317 304 292 286 251 241 230 156 229 229 230 235 227 233 222 219 226 232 227 224 247 250 251 248 256 256 343 342 330 316
267 262 310 314 300 296 299 343 337 325 302 291 282 316 311 313 299 273 268 261 257 245 239 233 228 228 228 227 229 230 156 244 240 238 246 246 254 245 252 252 316 337 316 331 307
261 263 294 311 319 349 334 312 307 302 283 265 262 310 296 294 277 279 268 261 259 251 247 246 243 243 237 231 234 245 252 251 248 245 241 246 241 251 251 264 307 336 319 328 293

GFSSW_2pvu_pres_144.txt.gz
Presure
157 181 186 183 178 176 162 166 175 175 180 183 180 176 188 184 189 148 190 182 171 168 168 178 180 180 185 187 183 170 164 177 195 181 195 198 199 198 188 187 208 208 216 218 216
182 181 184 178 157 165 168 176 142 184 180 173 177 190 194 177 193 190 164 162 170 167 142 162 157 182 143 167 202 176 198 175 186 170 189 193 184 205 201 192 197 213 207 173 212
133 176 164 176 142 172 144 160 183 164 172 191 171 168 126 195 187 199 183 190 177 170 162 168 162 188 176 189 182 215 180 177 178 192 177 173 185 202 201 189 202 204 200 200 206
143 183 171 162 178 180 169 142 179 179 180 169 191 139 131 154 184 176 196 190 175 175 163 177 181 176 179 169 185 197 204 189 197 186 172 187 192 168 186 195 209 209 208 199 201
179 160 130 184 185 171 172 184 180 167 174 174 175 185 172 196 190 176 145 137 186 171 172 182 177 177 181 178 185 215 177 198 193 183 188 182 190 192 182 166 186 196 203 200 200
160 176 188 127 163 168 142 168 176 174 172 187 174 177 177 189 180 185 131 171 189 175 183 182 191 183 175 171 178 214 201 196 196 197 184 188 185 183 199 169 180 199 192 189 194
184 183 179 128 177 172 177 177 178 117 167 179 177 177 170 184 183 191 181 159 178 161 157 188 181 185 166 162 162 170 208 201 199 189 184 191 173 161 185 194 199 197 190 198 195
175 122 175 162 172 135 173 172 132 164 160 118 176 172 180 171 182 155 167 143 184 185 170 196 178 195 171 207 175 211 206 214 196 197 189 150 183 191 182 183 196 198 191 202 166
171 168 171 145 149 170 147 111 168 142 183 181 137 162 188 190 189 135 159 187 200 163 191 177 184 180 188 197 171 197 177 215 206 139 189 178 186 178 181 195 196 170 203 199 172
179 182 168 183 178 155 170 173 181 173 168 164 184 173 161 164 179 182 174 180 175 185 175 188 189 205 181 192 192 199 184 219 211 206 195 192 188 188 185 194 177 202 188 187 180
164 146 179 178 177 181 177 177 173 170 180 155 183 180 190 190 178 150 182 181 162 169 156 216 158 213 168 173 184 160 223 176 185 207 204 201 196 185 180 197 164 173 194 186 159
182 180 175 189 164 187 181 189 186 162 177 168 178 177 175 188 187 187 184 194 190 186 180 210 183 181 201 182 200 194 202 190 206 176 204 208 202 196 196 195 191 181 190 208 208
198 193 192 189 181 173 181 184 186 185 188 187 172 185 176 152 190 168 186 174 198 185 202 213 208 164 166 166 194 171 219 211 204 200 184 190 195 195 134 192 191 201 200 171 202
210 203 191 204 193 200 182 210 182 194 186 191 188 190 190 185 190 198 191 209 161 187 195 178 193 208 162 167 166 182 231 200 203 205 198 189 182 183 192 187 195 191 204 198 208
208 218 158 179 168 200 183 192 211 181 182 161 168 195 205 207 194 201 190 188 159 199 203 165 195 193 167 191 192 230 232 234 219 209 200 199 200 207 179 205 202 200 210 212 210
238 216 215 187 215 194 186 196 192 189 198 204 196 163 173 207 208 200 200 190 191 182 199 198 211 201 209 195 206 203 226 229 229 182 211 180 216 214 207 206 208 205 219 225 145
216 193 221 218 227 216 225 216 195 198 209 200 66 123 215 209 204 176 190 208 204 196 218 186 186 161 207 191 205 222 219 212 210 220 218 221 218 209 208 213 219 132 216 219 226
219 231 239 211 228 220 219 238 250 210 204 218 187 155 222 187 197 198 208 196 221 196 206 201 200 206 210 206 209 196 215 223 222 227 224 224 224 215 217 213 216 228 236 240 235
221 230 229 241 244 266 243 244 266 238 230 225 228 232 227 203 197 196 195 197 189 196 203 212 210 214 218 226 210 220 229 223 206 216 227 224 232 231 229 232 232 232 185 238 259
239 236 240 225 272 241 250 233 228 179 245 251 244 244 258 242 240 248 233 228 213 213 208 210 207 210 213 221 228 223 227 220 215 218 223 233 226 232 192 215 208 235 174 257 266
260 267 261 282 316 330 344 382 376 350 321 94 257 254 292 244 229 238 241 238 227 233 244 220 227 232 229 219 227 222 216 223 219 215 220 233 230 225 220 217 228 237 225 255 159
259 324 337 183 299 366 414 397 370 350 350 316 320 314 307 301 296 293 291 285 267 229 247 227 217 218 231 226 220 223 215 225 217 218 219 232 220 226 228 244 247 241 259 244 93
288 299 293 332 375 379 377 358 349 347 335 337 329 318 320 322 337 317 285 275 271 256 248 240 237 237 226 223 226 219 220 145 227 232 235 225 222 224 228 226 231 244 254 258 258
315 314 346 374 327 309 314 314 335 330 319 315 313 302 301 302 322 334 335 339 285 262 252 242 235 232 229 232 226 224 187 230 219 222 230 228 223 232 234 239 259 255 260 255 257
325 341 371 293 288 294 290 297 295 295 302 296 291 291 306 313 308 315 323 322 316 284 262 252 241 236 233 227 179 224 226 229 175 223 219 230 233 237 238 260 249 251 255 255 257
332 335 280 282 279 274 294 312 316 301 282 288 286 287 313 314 299 298 306 303 296 287 268 257 244 239 241 236 229 232 231 228 229 228 228 235 234 260 253 249 252 254 252 253 272
291 277 284 270 278 284 306 302 300 301 296 287 325 324 303 284 278 274 297 303 285 276 277 262 252 248 243 243 238 235 237 233 231 232 233 241 255 246 246 246 251 252 249 262 314

GFSSW_2pvu_pres_147.txt.gz
Presure
153 144 147 145 183 165 181 172 163 141 164 182 179 166 164 176 178 188 180 176 193 190 184 188 149 168 140 175 170 168 184 184 160 194 186 165 192 102 185 193 181 155 203 202 203
138 152 167 174 149 190 182 161 174 190 184 121 181 179 177 175 162 161 177 188 196 169 163 197 184 190 115 169 170 166 169 173 160 170 178 178 201 187 200 195 188 204 155 200 205
195 192 172 185 158 175 182 185 175 177 181 171 189 168 175 188 155 181 184 191 192 191 189 189 197 188 177 134 167 177 174 168 191 170 177 181 191 201 200 194 198 193 189 180 205
196 183 183 189 147 180 142 177 167 179 142 140 130 166 174 148 178 183 173 183 182 181 189 180 192 195 177 176 172 164 159 169 174 168 166 212 194 210 201 196 184 189 197 199 187
172 179 184 187 164 178 146 175 141 183 167 168 178 167 176 170 173 177 184 171 154 138 175 182 182 184 179 178 165 175 181 183 188 171 171 175 173 193 201 192 182 193 180 192 197
204 196 183 190 137 177 177 156 169 176 144 183 124 182 178 168 176 169 174 181 196 186 139 184 193 171 180 164 168 176 175 171 183 173 185 167 193 190 200 194 193 189 201 180 167
193 113 201 152 206 140 128 183 176 188 183 187 168 181 173 171 181 161 180 171 186 184 179 186 182 185 170 182 176 183 179 183 166 207 170 185 184 206 192 196 197 191 174 187 183
173 174 169 185 182 191 197 160 167 151 181 165 183 137 164 175 168 165 124 164 146 177 172 192 195 178 167 170 178 155 163 192 167 175 190 168 215 196 175 199 192 196 188 184 188
175 136 167 177 163 157 177 167 179 184 179 181 159 164 175 178 180 178 174 177 178 171 179 181 191 168 189 174 167 159 157 204 191 179 212 201 195 179 202 199 199 191 182 184 190
127 149 181 170 131 178 166 195 174 167 182 181 137 153 164 153 171 138 171 160 182 167 182 185 186 186 175 188 172 168 183 179 200 185 216 204 207 218 180 193 197 194 188 191 187
195 199 193 211 195 194 180 173 182 172 152 143 184 172 175 133 162 161 182 183 188 180 181 185 176 161 185 156 191 154 209 190 216 180 170 176 208 208 187 208 199 197 202 207 189
200 177 168 188 187 183 170 193 193 155 183 177 173 176 181 175 179 174 180 184 182 178 191 178 168 183 162 192 182 193 193 204 201 188 193 173 168 216 216 184 208 205 203 206 202
174 193 167 162 194 215 182 228 222 183 176 167 183 186 186 166 159 171 185 183 185 190 186 174 187 175 189 185 185 209 202 183 210 189 191 161 227 233 215 196 205 193 184 192 192
195 198 196 209 175 188 178 220 205 229 185 188 183 201 184 182 151 175 188 185 160 195 168 202 201 205 170 188 185 202 190 199 199 207 170 177 215 172 217 204 215 210 200 204 204
204 182 207 201 200 192 211 219 207 218 183 201 193 189 180 179 180 189 177 178 176 175 184 173 196 192 218 195 185 214 195 181 200 196 194 187 175 181 239 242 233 223 216 210 205
210 213 212 216 184 212 220 220 181 217 215 229 203 190 181 192 192 206 181 194 200 198 194 186 196 162 174 203 159 192 197 206 202 208 219 188 169 165 222 230 233 233 232 230 222
217 214 214 219 217 221 225 224 219 226 227 211 200 106 121 172 201 206 201 185 178 177 201 190 195 196 186 199 190 160 160 199 183 198 199 199 210 145 224 221 232 233 231 235 229
223 228 231 224 226 231 234 235 215 224 220 222 214 214 209 216 218 208 210 189 180 185 182 200 207 189 190 186 207 193 197 195 211 214 206 222 216 212 218 235 237 229 220 226 236
243 232 225 247 241 237 228 240 225 225 221 228 215 225 232 207 212 185 223 182 201 200 199 201 223 208 198 202 214 192 217 214 194 198 209 211 210 214 221 237 231 231 227 231 227
238 240 243 244 239 232 237 238 236 217 233 240 234 230 231 225 223 225 240 254 225 226 242 222 222 212 211 211 215 209 205 194 208 201 209 212 211 223 233 232 221 225 235 231 229
243 252 239 231 247 246 238 230 229 218 235 188 169 136 259 246 245 247 262 261 253 253 246 241 227 226 220 218 214 214 235 218 229 233 233 232 229 217 233 231 221 228 200 171 228
230 240 241 247 242 237 249 232 231 234 229 239 255 349 369 383 355 345 327 315 296 228 229 249 250 242 242 229 244 227 241 229 214 225 219 224 216 234 227 230 218 225 234 229 234
241 239 241 241 251 248 235 245 245 281 359 353 356 361 357 359 356 349 341 313 309 302 296 249 235 238 230 247 242 225 222 244 238 231 228 228 233 229 226 226 226 232 232 232 229
247 248 250 194 255 254 265 307 332 351 346 340 303 348 351 343 340 339 330 314 314 307 299 302 287 280 274 258 254 241 251 243 235 236 232 234 231 228 226 224 227 231 235 230 133
264 282 272 308 182 286 282 334 329 310 335 341 344 343 339 335 328 326 314 311 314 315 316 303 281 277 276 270 260 255 246 237 235 235 215 231 228 226 227 227 231 233 230 242 259
272 276 268 281 269 290 349 313 304 298 301 304 335 326 317 307 297 290 291 287 285 304 308 316 309 312 275 266 257 254 243 238 236 230 230 158 227 229 226 132 230 238 246 266 257
273 198 265 272 291 347 315 295 289 291 299 304 296 306 301 289 297 297 303 308 295 293 307 304 298 292 293 276 259 251 245 238 234 234 233 229 231 231 230 201 248 259 248 253 249

GFSSW_2pvu_pres_153.txt.gz
Presure
171 173 174 148 167 162 180 132 176 152 174 146 149 186 197 189 175 176 175 176 174 168 182 178 181 185 180 169 182 179 174 183 188 182 183 192 189 186 178 155 174 134 134 174 177
170 164 166 162 120 146 169 183 155 152 165 184 210 202 165 175 174 177 181 175 184 174 177 178 184 172 167 156 173 185 181 178 186 187 182 187 190 183 185 180 177 150 143 173 173
163 148 164 177 145 153 154 154 135 187 194 190 182 161 193 200 185 169 167 174 171 180 171 181 181 179 169 169 167 183 162 188 191 115 185 188 190 186 178 111 167 153 167 170 164
172 173 187 155 199 179 153 178 146 210 152 199 195 163 187 193 166 174 183 179 173 153 170 166 172 170 165 163 182 171 181 168 180 188 181 185 181 186 188 180 179 176 175 183 181
154 156 164 174 199 182 164 139 182 180 160 177 196 179 190 192 184 167 169 177 174 176 161 167 172 172 163 162 171 159 161 179 177 180 166 184 184 165 185 179 184 184 179 173 174
175 158 140 197 167 159 128 199 189 192 191 173 184 187 191 179 188 187 179 175 174 180 155 171 166 169 154 170 133 156 185 186 159 186 148 175 178 140 146 174 171 176 157 174 159
191 194 180 187 145 201 178 180 185 209 193 150 198 194 159 195 187 177 181 172 184 153 168 171 156 178 178 177 154 190 134 177 180 182 179 176 178 186 180 177 171 176 198 174 167
171 175 152 159 194 172 185 153 176 181 154 174 177 199 182 214 178 192 180 188 175 143 168 174 173 181 185 171 177 173 176 192 179 194 183 175 186 180 190 191 179 170 168 186 183
154 166 183 136 184 149 162 148 172 186 181 178 149 170 188 160 197 188 169 122 169 159 149 170 142 164 135 151 185 151 186 178 196 184 189 191 175 154 195 194 195 180 173 167 171
186 157 195 163 168 168 192 187 170 130 165 160 148 188 178 148 180 202 168 170 182 198 184 194 193 141 189 184 195 175 167 186 187 175 194 168 194 167 173 187 183 186 178 201 206
127 184 135 191 175 138 178 193 179 164 178 168 171 170 186 192 181 172 179 181 203 177 177 175 181 187 168 174 169 133 180 187 185 182 140 174 200 167 168 201 205 196 178 167 201
171 181 181 177 193 171 177 155 182 174 186 171 158 193 152 160 184 200 133 171 204 176 184 172 177 178 172 180 177 184 177 176 187 179 190 183 193 178 191 189 201 170 189 205 226
193 183 155 160 174 159 158 174 193 155 189 158 177 177 184 189 175 174 183 180 183 197 198 170 176 185 157 174 180 172 181 159 184 189 193 195 182 184 187 193 194 199 191 170 170
188 183 163 165 158 175 166 174 188 154 182 166 179 199 180 164 183 197 176 203 196 195 182 202 208 200 192 180 186 183 175 185 184 190 183 185 161 185 212 189 168 185 167 195 202
180 175 177 164 175 192 175 189 170 201 154 176 176 200 196 198 168 198 201 201 202 208 202 190 193 201 201 213 217 193 185 180 189 192 190 176 188 190 206 184 179 204 206 198 185
187 182 185 179 164 148 178 192 156 157 178 151 203 174 201 194 196 201 203 203 163 168 200 177 206 176 197 214 211 218 214 211 210 198 179 157 195 216 220 215 213 212 204 200 208
173 175 181 185 159 188 189 196 195 174 200 211 180 176 175 205 201 143 200 204 204 206 207 209 210 207 213 177 209 208 203 209 212 214 214 208 215 158 162 197 202 209 188 170 191
193 192 198 186 199 190 190 201 179 197 171 107 210 205 201 205 208 210 216 211 174 210 208 204 198 202 206 209 187 213 212 213 215 213 196 211 221 213 199 207 208 193 196 204 181
174 185 182 202 169 200 204 205 210 210 207 213 213 214 215 213 219 217 218 214 207 209 211 203 207 206 216 220 220 207 219 208 207 217 214 220 170 208 208 207 195 211 209 212 219
214 208 218 220 210 213 212 215 215 211 211 219 213 211 191 211 215 219 227 224 214 225 221 223 223 228 225 224 204 177 234 230 229 229 223 221 224 223 216 220 218 211 215 219 219
225 217 212 217 221 218 228 215 217 218 219 211 213 220 223 225 225 226 238 227 226 138 192 232 249 238 234 237 234 225 227 226 224 224 229 230 228 227 226 218 216 219 214 217 223
224 224 224 231 224 234 221 228 229 226 226 226 227 220 226 236 234 143 255 104 103 241 237 224 249 248 242 238 234 231 225 224 225 229 232 237 224 224 222 229 224 221 235 240 238
238 240 243 239 239 234 237 240 238 235 230 236 243 258 241 239 253 249 249 241 238 243 244 245 244 244 250 227 230 237 239 243 243 228 231 236 233 234 232 226 259 249 247 249 242
240 244 244 248 245 232 229 241 239 254 248 240 238 241 199 251 254 253 244 243 223 249 276 282 330 387 391 365 316 271 264 275 247 250 284 304 285 271 264 262 253 252 250 241 239
241 233 224 231 230 230 248 234 230 233 246 237 248 251 255 249 255 254 247 289 299 278 318 339 359 358 360 353 345 350 341 334 325 315 308 294 290 277 274 266 256 247 244 243 241
296 254 266 244 276 243 240 240 234 240 240 260 251 255 140 260 295 276 276 290 325 303 312 343 335 344 341 323 323 330 328 322 316 302 300 292 288 271 270 266 254 246 246 243 249
277 298 287 288 283 293 294 277 282 274 272 275 269 275 196 268 274 277 310 309 291 296 333 333 329 320 318 305 304 307 301 305 305 299 294 294 280 277 271 259 255 259 261 252 251

GFSSW_2pvu_pres_156.txt.gz
Presure
166 138 162 176 169 164 170 171 161 172 185 172 169 156 153 170 176 206 174 188 193 179 169 180 174 185 164 177 137 180 158 169 177 177 178 185 182 174 184 190 184 133 152 176 186
178 169 170 166 173 163 148 162 164 170 167 166 134 178 160 169 175 178 186 203 173 190 191 181 184 181 172 150 180 172 178 175 172 125 170 185 176 194 188 191 188 182 187 183 184
150 174 162 134 172 164 176 161 157 154 172 95 185 188 133 188 136 197 200 196 204 192 189 190 186 181 181 102 179 170 168 175 173 169 100 163 180 178 178 170 193 185 190 188 188
163 174 169 162 154 161 167 171 155 190 210 209 165 162 205 196 164 193 202 197 176 151 182 168 177 170 179 175 173 138 177 176 173 170 162 174 167 165 184 183 189 185 182 180 117
167 161 146 162 164 163 177 123 147 143 175 188 196 203 128 176 203 174 195 193 189 170 177 172 177 178 175 171 172 171 166 166 170 177 173 173 164 172 183 180 186 184 179 179 179
176 144 149 155 165 151 124 160 157 157 173 174 168 165 170 202 166 177 181 184 167 186 189 182 168 187 180 169 179 177 176 175 178 160 174 173 150 182 182 184 180 181 180 177 171
161 173 170 137 172 163 135 166 158 187 131 211 200 156 185 164 160 192 194 181 170 184 182 163 180 183 177 180 187 162 171 178 177 174 176 150 145 181 173 176 191 171 177 180 179
160 154 174 141 173 159 170 151 161 160 186 146 175 159 167 171 152 168 183 172 169 174 136 175 181 191 180 174 179 164 172 167 174 160 163 170 174 130 179 163 174 186 196 176 174
180 179 147 125 163 174 153 159 163 161 166 189 154 181 171 185 175 181 148 167 207 179 184 198 178 176 180 150 177 180 173 176 170 173 176 132 194 200 133 196 179 194 193 169 194
185 177 184 176 152 176 172 191 187 148 173 154 162 165 178 201 151 151 197 161 179 161 162 186 195 200 199 202 166 189 174 200 189 185 187 193 184 189 134 195 186 189 169 185 196
194 173 173 195 196 147 152 180 176 164 188 176 177 164 181 173 175 184 174 150 197 171 139 158 185 204 174 168 186 179 111 184 175 195 189 174 182 190 183 188 180 189 175 199 168
202 155 185 159 181 176 147 157 163 168 167 181 191 163 189 182 165 172 152 169 183 167 200 170 189 197 182 147 180 186 182 167 183 180 190 161 187 175 194 164 184 189 176 195 180
167 178 161 185 179 181 152 167 176 172 188 166 185 177 177 162 170 172 161 160 179 170 204 192 164 188 190 198 202 169 181 183 179 187 184 166 187 189 183 182 185 180 187 191 186
163 167 174 166 188 164 163 193 149 195 162 148 157 185 166 177 160 156 165 162 169 168 139 188 196 192 196 200 190 201 197 188 190 201 192 189 191 192 186 189 190 182 183 186 185
159 189 175 190 154 153 146 157 162 169 177 184 165 156 155 128 183 171 184 178 189 169 199 193 187 197 196 164 198 199 204 209 208 209 192 209 204 209 185 180 179 180 193 197 203
197 168 192 169 165 170 167 181 154 177 176 159 151 184 165 164 162 190 172 185 153 158 174 164 193 181 197 197 187 187 199 180 177 179 199 210 200 175 209 208 214 210 211 191 161
193 159 195 165 192 192 186 192 170 166 194 185 175 183 189 187 193 167 191 177 202 183 202 199 201 187 198 190 194 201 210 199 211 207 210 210 220 177 209 107 206 213 207 205 210
187 186 169 184 194 181 185 161 190 160 159 187 159 162 199 164 162 198 189 202 185 192 203 203 202 203 197 198 204 205 213 208 196 209 212 217 217 214 210 200 217 215 213 212 211
188 201 198 195 194 175 195 169 183 181 186 198 178 204 204 204 184 205 210 205 204 207 206 201 204 199 207 213 211 212 213 209 216 222 219 220 209 218 214 226 230 220 234 231 227
197 198 197 197 193 197 187 187 183 187 195 210 211 200 209 209 213 206 205 198 204 208 212 210 217 213 212 217 224 226 230 233 224 236 225 230 226 226 234 225 230 231 227 222 218
209 201 194 208 206 207 211 206 205 206 215 216 215 213 206 210 211 210 211 209 219 214 223 162 225 227 231 228 234 237 242 232 232 240 237 242 243 237 224 229 229 225 223 224 223
212 230 214 213 215 203 206 217 218 222 219 208 205 208 222 216 211 216 214 219 222 225 229 229 243 245 244 247 238 246 245 243 242 239 240 244 242 227 234 232 232 229 226 225 228
225 239 231 246 219 226 221 224 229 220 217 223 220 223 225 223 226 228 239 232 291 249 236 257 254 259 260 250 250 255 253 247 244 252 243 238 243 250 243 238 238 239 236 232 228
250 246 245 240 241 241 237 227 214 220 225 219 226 227 231 236 247 245 277 229 245 248 251 253 261 268 262 260 262 264 266 280 310 352 314 291 269 253 252 253 249 245 241 239 238
252 251 252 247 243 238 227 226 221 221 230 238 225 237 233 254 259 259 257 243 243 249 247 264 259 261 291 290 307 331 356 357 360 359 351 343 339 328 332 325 318 274 308 309 286
308 259 259 270 247 257 245 258 254 250 255 272 241 227 251 248 244 264 240 252 186 271 254 275 278 281 327 315 348 345 336 338 333 328 331 329 328 299 315 305 296 290 293 285 282
291 305 299 290 281 289 268 275 269 272 244 245 259 274 255 276 285 264 266 269 270 269 270 271 279 312 306 327 343 338 310 312 308 306 305 319 301 299 306 298 293 293 282 271 265